User: anonymous   Login
Location: Ferchesar
(52.6477°N, 12.4298°E)
Time: 17:58:43
(UTC+01:00)
Language:

Transit 2A - Orbit

View from above orbital plane
View from above orbital plane
View from above satellite
View from above satellite

Ground track
Ground track

The orbit data is extracted from the following two-line orbital elements,

1 00045U 60007A   21056.67469264 -.00000037  00000-0  17546-4 0  9998
2 00045  66.6937  73.5669 0249769 132.4434 229.8087 14.33707243102139
Epoch (UTC): 25 February 2021 16:11:33
Eccentricity: 0.0249769
inclination: 66.6937°
perigee height: 600 km
apogee height: 958 km
right ascension of ascending node: 73.5669°
argument of perigee: 132.4434°
revolutions per day: 14.33707243
mean anomaly at epoch: 229.8087°
orbit number at epoch: 10213

The dashed part of the orbit path shows where the satellite is in the earth's shadow,  

DLR